HST
1 20580U 90037B   24101.63241124  .00004915  00000-0  23485-3 0  9999
2 20580  28.4688  77.3951 0002457  20.5440 339.5250 15.16655132666761
ISS (ZARYA)
1 25544U 98067A   24102.18017604  .00013592  00000-0  24499-3 0  9997
2 25544  51.6374 287.6432 0004701  55.3920 304.7512 15.50080873448157
CXO
1 25867U 99040B   24104.39900763  .00000859  00000-0  00000-0 0  9990
2 25867  39.7933 160.1482 8951194 291.8037   0.1094  0.37811186 14322